Temperature
17 17 17 17 17 17 17 17 17 17 17 17 17 17 17 17 17 17 17 17 17 17 17 17 18 18 18 17 17 17 17 18 17 17 18 18 18 17 17 17 18 18 17
17 17 17 17 17 17 17 17 17 17 17 17 17 17 17 17 17 17 17 17 17 17 17 17 17 17 17 17 17 17 17 17 17 17 17 17 17 17 17 17 17 17 17
17 17 17 17 17 17 17 17 17 17 17 17 17 17 17 17 17 17 17 17 17 17 17 17 17 17 17 17 17 17 17 17 17 17 17 17 17 17 17 17 17 17 17
17 17 17 17 17 17 17 17 17 17 17 17 17 17 17 17 17 17 17 17 17 17 17 17 17 17 17 17 17 17 17 17 17 17 17 17 17 17 17 17 17 17 17
17 17 17 17 17 17 17 17 17 17 17 17 17 17 17 17 17 17 17 17 17 17 17 17 17 17 17 17 17 17 17 17 17 17 17 17 17 17 17 17 17 17 17
17 17 17 17 17 17 17 17 17 17 17 17 17 17 17 17 17 17 17 17 17 17 17 17 17 17 17 17 17 17 17 17 17 17 17 17 16 16 16 16 16 16 17
17 17 17 17 17 17 17 17 17 17 17 17 17 17 17 17 17 17 17 17 16 16 16 16 16 16 16 16 16 17 17 16 16 16 16 16 16 16 16 16 16 16 16
17 17 17 17 17 17 17 17 17 17 17 17 17 17 17 17 17 17 17 17 16 16 16 16 16 16 16 16 16 16 16 16 16 16 16 16 16 16 16 16 16 16 16
17 17 17 17 17 17 17 17 17 17 17 17 17 17 17 17 17 17 17 17 16 16 16 16 16 16 16 16 16 16 16 16 16 16 16 16 16 16 16 16 16 16 16
16 16 16 16 16 16 17 17 17 17 17 17 17 17 17 16 16 17 16 16 16 16 16 16 16 16 16 16 16 16 16 16 16 15 15 15 15 15 15 16 16 16 16
16 16 16 16 16 16 16 16 17 17 16 16 16 16 16 16 16 16 16 16 16 16 16 16 16 16 16 16 15 15 15 15 15 15 15 15 15 15 15 15 15 15 15
17 16 16 16 16 16 16 16 16 16 16 16 16 16 16 16 16 16 16 16 16 16 16 16 16 16 16 15 15 15 15 15 15 15 15 15 15 15 15 15 15 15 15
16 16 16 16 16 16 16 16 16 16 16 16 16 16 16 16 16 16 16 16 16 16 16 15 15 15 15 15 15 15 15 15 15 15 15 15 15 15 15 15 15 15 15
16 16 16 16 16 16 16 16 16 16 16 16 16 16 16 16 16 16 16 15 15 15 15 15 15 15 15 15 15 15 15 15 15 15 15 15 15 14 14 14 15 15 15
16 16 16 16 16 16 16 16 16 16 16 16 16 16 15 16 15 15 15 15 15 15 15 15 15 15 15 15 15 15 15 14 14 14 14 14 14 14 14 14 14 14 14
16 16 16 16 16 16 16 16 16 15 15 15 15 15 15 15 15 15 15 15 15 15 15 15 15 15 14 14 14 14 14 14 14 14 14 14 14 14 14 14 14 14 14
16 16 16 16 16 16 16 15 15 15 15 15 15 15 15 15 15 15 15 15 15 14 14 14 14 14 14 14 14 14 14 14 14 14 14 14 14 14 14 14 14 14 14
16 16 16 16 16 16 16 15 15 15 15 15 15 15 15 15 15 14 14 14 14 14 14 14 14 14 14 14 14 14 14 14 13 13 13 13 13 13 14 14 14 14 14
16 16 16 16 16 16 15 15 15 15 15 15 15 15 14 14 14 14 14 14 14 14 14 14 14 14 14 14 14 14 14 13 13 13 13 13 13 13 13 13 13 13 13
16 16 16 16 16 16 15 15 15 15 15 15 14 14 14 14 14 14 14 14 14 14 13 13 13 13 13 13 13 13 13 13 13 13 13 13 12 12 13 13 13 13 13
16 16 16 16 16 15 15 15 15 15 15 14 14 14 14 14 14 14 14 14 13 13 13 13 13 13 13 13 13 13 13 13 13 12 12 12 12 12 12 12 12 13 13
16 16 16 15 15 15 15 15 15 15 14 14 14 14 14 14 13 13 13 13 13 13 13 13 13 13 13 13 13 12 12 12 12 12 12 12 12 12 12 12 12 12 12
16 16 16 15 15 15 15 15 15 14 14 14 14 14 14 13 13 13 13 13 13 13 13 13 12 12 12 12 12 12 12 12 11 12 12 12 12 11 11 11 12 12 12
16 16 15 15 15 15 15 14 14 14 14 14 14 13 13 13 13 13 13 13 13 13 12 12 12 12 12 12 12 12 12 11 11 11 11 11 11 11 11 11 11 11 12
16 16 15 15 15 15 14 14 14 14 14 14 13 13 13 13 13 13 13 13 12 12 12 12 12 12 12 12 12 12 11 11 11 11 11 11 11 11 11 11 11 11 11
16 15 15 15 15 14 14 14 14 14 14 14 13 13 13 13 13 12 12 12 12 12 12 12 12 12 12 11 11 11 11 11 11 11 10 11 11 11 11 11 11 11 11
Wind_Speed
3 4 4 5 6 7 8 9 10 10 10 10 11 11 10 11 11 11 11 11 11 12 12 11 11 11 11 11 11 10 10 10 9 8 8 8 8 8 8 8 7 7 7
1 3 4 4 6 7 8 9 10 10 10 10 10 10 10 10 10 11 11 11 11 11 11 11 11 11 11 11 11 11 10 10 9 9 8 8 8 8 8 7 7 6 7
2 3 3 5 6 8 8 9 9 10 10 10 10 10 10 10 10 10 10 11 11 11 11 11 11 11 11 11 11 11 10 10 10 11 11 8 7 8 8 7 7 7 7
2 4 4 5 7 8 8 8 9 10 10 10 10 10 10 10 10 10 10 10 10 10 10 10 10 11 11 11 11 11 11 11 11 11 9 8 6 7 7 7 7 7 7
4 4 4 7 8 8 8 8 9 9 9 10 10 10 10 10 10 10 10 10 10 10 10 10 10 10 11 11 11 11 11 11 11 10 9 8 6 7 7 7 8 7 7
4 5 5 7 9 9 8 9 9 9 9 9 10 10 10 10 10 10 10 9 9 9 9 9 10 10 11 12 12 11 11 11 10 9 8 7 6 7 7 7 7 7 8
3 5 6 7 8 9 9 9 9 9 9 10 10 10 10 10 10 9 9 8 8 8 9 9 9 10 10 11 11 11 11 11 9 8 7 6 6 7 7 7 7 7 7
4 5 6 7 8 8 8 8 8 9 9 10 10 10 10 9 9 8 8 7 7 8 8 9 9 9 9 10 10 11 11 10 8 7 6 5 6 7 7 8 7 7 7
5 5 6 7 7 7 7 8 8 9 10 10 10 10 10 9 9 8 7 7 7 8 8 8 8 9 9 10 10 11 11 10 9 7 6 5 7 8 8 7 7 7 7
5 5 6 7 7 7 6 7 8 9 10 10 10 11 10 10 10 9 8 8 8 8 8 9 9 9 9 10 10 11 10 10 8 7 6 7 9 8 8 8 8 8 7
4 4 5 5 6 6 6 7 8 8 9 10 10 11 10 10 9 9 9 10 10 10 10 10 10 10 10 10 9 10 9 8 8 6 6 8 9 9 9 9 8 8 8
2 2 3 4 4 5 5 7 8 8 9 9 9 10 9 9 9 9 9 10 10 10 10 11 11 10 9 7 8 8 8 8 7 6 6 9 9 9 9 9 9 8 8
2 2 2 3 4 4 5 6 7 7 8 8 9 9 9 9 9 9 8 8 9 10 9 9 9 8 7 6 6 7 7 7 6 6 7 9 10 9 9 9 10 9 9
3 2 2 3 3 4 4 5 5 5 6 6 7 8 7 6 6 6 6 6 7 7 6 6 6 7 7 7 6 6 7 6 6 6 7 10 10 10 9 9 9 9 9
3 2 2 3 3 3 4 4 4 4 4 5 6 7 7 5 4 5 5 5 6 6 5 5 5 5 5 5 6 6 5 6 7 7 7 9 10 9 9 9 9 9 9
4 3 2 3 3 4 3 3 3 4 4 5 5 6 6 5 4 4 4 5 5 5 5 5 4 4 4 4 5 5 5 5 6 7 7 8 10 10 10 9 10 10 9
5 4 3 4 3 3 3 3 3 4 5 5 5 5 6 6 5 4 3 3 4 5 5 5 5 5 4 4 4 4 4 5 5 6 7 8 8 10 10 10 10 10 9
5 4 4 4 4 3 3 3 3 4 4 4 4 5 5 6 5 5 3 3 4 5 4 3 3 4 4 3 3 3 3 4 5 5 6 7 8 8 9 10 9 9 9
6 5 4 4 4 3 3 3 3 4 4 4 4 4 5 5 5 5 3 4 5 4 3 3 3 2 2 3 3 3 3 3 3 5 5 6 7 7 7 9 9 9 9
4 5 5 4 4 3 3 3 3 3 3 4 4 4 4 4 5 5 4 4 4 3 3 3 3 3 2 2 3 3 3 3 3 3 4 5 6 6 7 7 8 8 9
4 4 5 5 4 4 3 2 2 1 1 1 3 4 4 4 4 4 3 3 3 3 2 3 2 3 3 2 3 3 3 3 3 3 3 3 4 5 6 6 6 6 6
6 5 5 5 5 4 3 3 2 2 1 1 2 3 4 4 3 3 3 2 2 2 3 3 3 2 2 3 2 2 3 4 3 3 3 2 3 4 4 5 5 5 5
6 6 6 5 5 5 4 3 3 3 2 2 2 1 2 3 3 3 3 3 2 2 1 1 2 3 1 2 2 2 2 1 3 3 3 3 3 3 3 4 5 5 5
7 6 6 6 5 5 5 5 5 4 3 3 2 1 1 2 2 3 2 2 2 1 1 1 2 1 2 1 1 2 1 2 1 2 3 3 3 3 3 3 4 5 5
6 6 5 5 5 5 5 6 5 4 3 2 1 1 0 1 1 2 2 2 2 1 1 1 2 2 1 1 0 0 1 1 1 1 3 4 3 2 2 3 3 4 5
5 5 5 5 5 5 5 5 6 5 4 3 2 2 1 0 0 1 1 1 1 1 0 0 1 1 1 1 1 1 1 1 1 1 1 3 3 3 3 2 2 3 5
Wind_Direction
308 324 9 46 57 63 65 65 64 66 69 69 68 68 71 75 76 78 78 83 83 82 79 77 76 75 75 76 77 75 73 68 64 63 68 72 74 73 71 70 67 68 71
306 0 27 52 66 69 67 63 62 64 67 69 71 71 71 74 78 80 81 81 80 80 79 76 74 71 72 73 73 72 70 66 61 57 68 73 73 71 68 71 68 70 67
22 15 25 59 76 74 69 66 65 64 65 71 72 71 72 74 79 83 83 82 81 80 77 74 72 71 72 71 69 67 66 63 60 59 62 61 65 68 65 63 63 65 65
39 26 31 66 77 77 73 70 69 67 67 69 70 71 70 74 79 82 84 84 82 81 79 75 72 71 72 70 67 66 64 63 63 62 56 52 55 66 63 61 62 61 61
46 38 44 67 74 78 76 73 73 72 70 69 70 71 70 72 78 81 82 84 81 78 78 77 74 73 72 71 68 66 65 65 64 60 56 52 54 63 63 61 61 61 58
51 44 54 68 71 72 78 73 71 69 69 70 70 70 68 71 76 79 79 82 84 81 78 77 76 75 73 72 69 68 67 65 62 57 51 48 52 59 61 60 61 59 56
61 46 56 71 72 67 66 70 69 68 71 71 70 69 67 67 70 73 75 76 83 83 79 76 78 78 75 72 70 70 69 65 59 53 48 47 53 56 58 58 59 56 52
70 50 55 68 69 67 66 64 65 68 71 71 69 66 63 62 65 67 70 76 81 81 79 78 79 81 76 74 71 69 68 64 59 52 47 48 51 55 56 54 52 51 47
59 54 45 53 58 60 64 66 63 65 69 68 65 63 61 58 59 61 64 72 80 83 81 79 77 79 79 77 73 69 66 60 55 49 47 48 50 56 56 54 51 49 48
56 50 44 46 48 48 50 58 63 66 64 62 60 59 57 52 49 54 61 68 75 80 79 77 74 73 74 75 73 68 62 56 49 44 40 48 53 56 55 53 52 50 48
60 45 43 45 45 48 51 55 59 63 60 59 56 54 51 45 43 46 55 64 69 72 74 74 73 71 71 68 67 66 62 55 49 42 43 50 51 52 51 49 50 51 50
88 57 48 49 47 49 53 53 51 54 54 54 53 51 48 45 44 49 52 57 60 62 67 69 68 65 63 60 57 59 56 52 50 41 46 49 49 51 50 46 47 48 48
140 95 75 61 55 56 52 54 52 54 51 50 52 51 50 46 43 44 44 46 50 54 54 55 56 55 60 63 61 58 56 55 48 42 43 46 47 49 49 45 44 45 47
131 121 98 74 69 64 61 59 57 53 47 44 47 51 53 44 39 40 43 41 48 52 55 53 59 56 58 61 64 62 57 55 47 40 40 43 43 44 45 43 40 40 40
148 150 126 96 86 75 72 64 64 56 50 48 51 49 54 53 45 40 44 47 47 51 61 64 64 62 60 53 53 60 55 52 48 42 34 36 39 40 42 41 40 39 37
173 171 152 121 97 90 82 72 68 60 58 56 50 47 54 58 55 50 46 44 43 43 54 70 70 66 58 55 44 44 46 50 49 45 38 32 33 35 39 39 38 38 36
179 169 158 143 106 97 93 82 72 63 64 56 49 50 52 56 59 62 61 50 39 47 59 69 65 62 56 50 37 32 40 45 46 42 41 36 32 33 35 36 36 36 33
170 167 165 150 127 114 102 85 71 65 65 56 52 53 52 56 64 66 65 53 45 57 64 65 58 57 49 45 34 21 27 36 37 40 43 39 36 32 29 30 32 34 34
171 165 158 149 141 134 114 94 79 68 61 55 57 52 50 57 63 67 61 52 58 62 57 57 53 62 55 40 33 27 20 26 28 39 39 36 34 31 28 24 26 32 34
163 160 157 148 142 130 112 93 78 65 51 48 54 47 48 56 64 69 62 54 61 65 55 53 56 48 54 41 44 29 15 18 29 37 32 31 29 27 27 27 25 25 27
159 160 162 155 153 138 128 125 118 112 66 46 38 42 50 58 67 71 62 61 59 70 64 64 71 57 40 28 51 22 9 21 32 24 27 29 22 21 23 24 24 21 16
179 177 171 172 166 161 160 156 145 141 140 123 38 36 45 57 61 65 67 72 67 69 56 52 62 69 42 33 70 66 10 355 2 12 17 27 15 17 15 12 11 11 9
185 183 182 182 175 170 153 126 103 81 59 50 42 25 13 47 55 53 62 69 75 89 89 48 74 85 69 13 36 103 112 268 318 337 1 15 8 8 359 2 1 358 357
195 185 178 178 175 169 155 151 148 155 173 201 197 194 14 49 62 64 71 72 77 79 90 54 52 65 102 37 2 31 112 167 149 323 333 348 354 355 347 355 354 346 345
186 180 180 172 169 165 166 167 163 168 182 166 143 146 138 36 45 56 79 77 64 60 79 69 60 56 75 107 86 55 51 37 118 167 305 325 337 331 334 335 337 338 335
176 172 171 173 178 170 170 172 174 178 171 152 161 177 197 232 330 14 64 79 72 63 69 63 92 87 73 78 64 110 149 167 218 186 247 298 312 313 319 330 339 334 330
Height
1519 1518 1518 1518 1517 1517 1517 1517 1517 1517 1517 1516 1516 1516 1516 1516 1516 1516 1516 1517 1517 1517 1518 1518 1518 1518 1518 1518 1519 1519 1519 1519 1518 1518 1517 1517 1518 1518 1518 1518 1518 1518 1518
1520 1519 1519 1519 1519 1519 1518 1518 1518 1518 1518 1518 1517 1517 1517 1517 1517 1518 1518 1518 1518 1518 1519 1519 1519 1519 1519 1519 1519 1519 1519 1519 1518 1517 1515 1517 1518 1519 1519 1519 1519 1519 1518
1521 1520 1520 1520 1520 1520 1520 1520 1519 1519 1519 1519 1518 1518 1518 1518 1518 1519 1519 1519 1519 1519 1520 1520 1520 1520 1520 1520 1520 1520 1520 1520 1519 1517 1516 1518 1519 1519 1519 1519 1519 1519 1518
1522 1521 1521 1521 1521 1521 1521 1521 1521 1520 1520 1520 1520 1519 1519 1519 1519 1519 1520 1520 1520 1520 1520 1521 1521 1521 1521 1521 1521 1521 1521 1520 1520 1519 1518 1519 1519 1519 1519 1519 1519 1519 1518
1523 1523 1522 1522 1522 1522 1522 1522 1522 1522 1522 1521 1521 1521 1520 1520 1520 1520 1520 1520 1521 1521 1521 1522 1522 1522 1522 1522 1522 1522 1521 1521 1521 1521 1520 1520 1520 1520 1520 1519 1519 1519 1518
1524 1524 1523 1523 1523 1523 1523 1523 1523 1523 1523 1522 1522 1522 1522 1521 1521 1521 1521 1521 1522 1522 1522 1522 1522 1522 1523 1522 1522 1522 1522 1522 1522 1521 1521 1521 1521 1520 1520 1519 1519 1518 1518
1526 1525 1525 1525 1525 1524 1524 1525 1525 1524 1524 1523 1523 1523 1523 1523 1522 1522 1522 1522 1522 1523 1523 1523 1523 1523 1523 1523 1523 1523 1523 1522 1522 1522 1522 1521 1521 1521 1520 1520 1519 1518 1517
1527 1527 1527 1526 1526 1526 1526 1526 1526 1526 1525 1525 1524 1524 1524 1523 1523 1523 1522 1522 1523 1523 1523 1523 1524 1524 1524 1524 1523 1523 1523 1523 1523 1522 1522 1522 1522 1521 1520 1520 1519 1518 1517
1528 1528 1528 1528 1528 1528 1528 1527 1527 1527 1526 1526 1526 1525 1525 1524 1524 1523 1522 1522 1523 1523 1523 1524 1524 1524 1524 1524 1524 1524 1523 1523 1523 1523 1523 1522 1522 1521 1521 1520 1519 1518 1517
1529 1529 1529 1529 1529 1529 1529 1529 1528 1528 1527 1527 1527 1526 1526 1525 1524 1523 1523 1522 1523 1523 1524 1524 1524 1524 1524 1524 1524 1524 1524 1524 1524 1523 1523 1523 1522 1522 1521 1520 1519 1518 1517
1530 1530 1530 1530 1530 1530 1530 1530 1530 1529 1529 1528 1528 1527 1527 1526 1525 1524 1523 1523 1524 1524 1525 1525 1525 1525 1525 1525 1525 1524 1524 1524 1524 1524 1524 1523 1523 1522 1522 1521 1520 1519 1517
1530 1531 1531 1531 1532 1532 1532 1531 1531 1530 1530 1530 1529 1529 1528 1527 1525 1525 1524 1524 1525 1525 1526 1526 1526 1525 1525 1525 1525 1525 1524 1524 1524 1524 1524 1523 1523 1523 1522 1521 1520 1519 1518
1531 1532 1532 1532 1533 1533 1533 1533 1532 1532 1531 1531 1530 1530 1529 1528 1527 1526 1526 1526 1526 1526 1527 1527 1526 1526 1526 1526 1525 1525 1525 1525 1525 1524 1524 1523 1523 1523 1522 1522 1521 1520 1518
1532 1532 1533 1533 1533 1533 1533 1533 1533 1533 1533 1532 1531 1531 1530 1529 1528 1528 1527 1527 1527 1528 1528 1527 1527 1527 1527 1526 1526 1526 1525 1525 1525 1524 1524 1524 1523 1523 1522 1522 1521 1520 1519
1532 1533 1533 1534 1534 1534 1534 1534 1534 1534 1534 1533 1532 1532 1531 1530 1530 1529 1529 1529 1529 1528 1528 1528 1528 1527 1527 1527 1526 1526 1526 1525 1525 1524 1524 1524 1523 1523 1522 1522 1521 1520 1520
1532 1533 1534 1534 1534 1535 1535 1535 1535 1535 1535 1534 1534 1533 1532 1532 1531 1530 1530 1530 1529 1529 1529 1529 1528 1528 1528 1527 1527 1526 1526 1526 1525 1525 1524 1524 1524 1523 1523 1522 1522 1521 1520
1532 1532 1533 1534 1535 1535 1535 1536 1536 1536 1535 1535 1535 1534 1533 1533 1532 1531 1531 1531 1530 1530 1530 1529 1529 1529 1528 1528 1527 1527 1527 1526 1526 1525 1525 1524 1524 1523 1523 1522 1522 1521 1521
1531 1532 1533 1534 1535 1535 1536 1536 1536 1536 1536 1536 1535 1534 1534 1534 1533 1533 1532 1531 1531 1531 1530 1530 1529 1529 1528 1528 1528 1527 1527 1526 1526 1525 1525 1524 1524 1524 1523 1523 1522 1522 1521
1530 1531 1533 1534 1534 1535 1536 1536 1537 1537 1536 1536 1536 1535 1535 1534 1534 1533 1533 1532 1532 1531 1531 1530 1530 1529 1529 1528 1528 1527 1527 1526 1526 1525 1525 1525 1525 1524 1524 1523 1522 1522 1521
1529 1531 1532 1533 1534 1535 1535 1536 1536 1536 1536 1536 1536 1535 1535 1535 1534 1534 1533 1533 1532 1532 1531 1531 1530 1530 1529 1528 1527 1527 1527 1526 1526 1526 1526 1525 1525 1525 1524 1523 1523 1522 1521
1528 1529 1530 1532 1533 1533 1534 1534 1535 1535 1536 1536 1536 1536 1535 1535 1534 1534 1534 1533 1532 1532 1531 1531 1530 1530 1529 1528 1527 1527 1527 1526 1526 1526 1525 1525 1525 1525 1524 1523 1523 1522 1521
1525 1527 1529 1530 1531 1532 1533 1534 1534 1535 1535 1535 1536 1535 1535 1535 1535 1534 1534 1533 1533 1532 1531 1531 1530 1529 1529 1528 1528 1526 1526 1527 1526 1526 1525 1525 1524 1524 1524 1523 1522 1522 1521
1523 1525 1527 1529 1530 1531 1532 1533 1534 1534 1534 1535 1535 1535 1535 1535 1534 1534 1533 1533 1533 1532 1531 1531 1530 1530 1529 1529 1528 1528 1527 1526 1525 1525 1524 1524 1524 1523 1523 1523 1522 1521 1520
1521 1523 1525 1527 1528 1529 1530 1531 1532 1532 1532 1533 1534 1534 1534 1534 1534 1533 1533 1533 1532 1532 1531 1531 1530 1530 1529 1528 1528 1528 1528 1527 1526 1524 1524 1523 1523 1522 1522 1521 1521 1520 1520
1519 1521 1523 1525 1526 1527 1528 1529 1530 1531 1531 1532 1533 1533 1533 1533 1533 1533 1532 1532 1532 1531 1531 1530 1530 1529 1529 1528 1527 1527 1526 1526 1526 1525 1523 1522 1522 1521 1521 1520 1520 1519 1518
1516 1518 1520 1522 1524 1525 1526 1527 1528 1529 1530 1530 1531 1531 1531 1531 1531 1531 1531 1531 1530 1530 1530 1529 1529 1528 1528 1527 1527 1526 1526 1525 1525 1524 1523 1521 1520 1520 1519 1519 1518 1518 1517